Weather History for Rome, NY

Change the Weather History Date:

Monday, November 11, 2013

  Actual Average Record
Temperature  
Mean Temperature 38 °F -  
Max Temperature 44 °F 44 °F 68 °F (2012)
Min Temperature 33 °F 34 °F 25 °F (1987)
Degree Days  
Heating Degree Days 26    
Moisture  
Dew Point 31 °F    
Average Humidity 76    
Maximum Humidity 92    
Minimum Humidity 55    
Precipitation  
Precipitation 0.04 in - - ()
Sea Level Pressure  
Sea Level Pressure 30.02 in    
Wind  
Wind Speed 12 mph (WSW)    
Max Wind Speed 21 mph    
Max Gust Speed 24 mph    
Visibility 10 miles    
Events Rain , Snow    
Averages and records for this station are not official NWS values.
T = Trace of Precipitation, MM = Missing Value Source: NWS Daily Summary

Daily Weather History Graph

Daily Weather History Graph

Search for Another Location

Airport:

Trip Planner

Search our weather history database for the weather conditions in past years. The results will help you decide how hot, cold, wet, or windy it might be!

Date:

Astronomy

Nov. 11, 2013 Rise Set
Actual Time 6:49 AM EST 4:41 PM EST
Civil Twilight 6:19 AM EST 5:11 PM EST
Nautical Twilight 5:45 AM EST 5:45 PM EST
Astronomical Twilight 5:11 AM EST 6:19 PM EST
Moon 1:29 PM EST (11/11) 12:22 AM EST (11/11)
Length of Visible Light 10h 52m
Length of Day
9h 51m
Waxing Gibbous, 66% of the Moon is Illuminated
Nov 11
Waxing Gibbous
Nov 17
Full
Nov 25
Last Quarter
Dec 2
New
Dec 9
First Quarter

Hourly Weather History & Observations

Time (EST) Temp. Windchill Dew Point Humidity Pressure Visibility Wind Dir Wind Speed Gust Speed Precip Events Conditions
12:53 AM 37.9 °F 28.2 °F 27.0 °F 65% 30.09 in 10.0 mi WNW 18.4 mph 24.2 mph N/A   Overcast
1:53 AM 37.9 °F 28.9 °F 28.0 °F 68% 30.11 in 10.0 mi WNW 16.1 mph - N/A   Overcast
2:53 AM 37.9 °F 29.6 °F 27.0 °F 65% 30.12 in 10.0 mi WNW 13.8 mph - N/A   Overcast
3:53 AM 37.0 °F 27.7 °F 27.0 °F 67% 30.13 in 10.0 mi WNW 16.1 mph - N/A   Mostly Cloudy
4:53 AM 36.0 °F 28.5 °F 26.1 °F 67% 30.15 in 10.0 mi WNW 10.4 mph - N/A   Scattered Clouds
5:53 AM 34.0 °F 29.8 °F 26.1 °F 73% 30.15 in 10.0 mi West 4.6 mph - N/A   Partly Cloudy
6:53 AM 33.1 °F 30.0 °F 27.0 °F 78% 30.15 in 10.0 mi North 3.5 mph - N/A   Overcast
7:53 AM 35.1 °F 31.0 °F 30.0 °F 82% 30.16 in 10.0 mi Variable 4.6 mph - N/A   Overcast
8:06 AM 36.0 °F 31.1 °F 32.0 °F 86% 30.15 in 10.0 mi SW 5.8 mph - N/A   Overcast
8:53 AM 37.9 °F 34.4 °F 33.1 °F 83% 30.14 in 10.0 mi SSW 4.6 mph - N/A   Overcast
9:25 AM 39.0 °F 34.0 °F 30.9 °F 73% 30.12 in 10.0 mi WSW 6.9 mph - N/A   Overcast
9:53 AM 41.0 °F 35.8 °F 30.9 °F 67% 30.13 in 10.0 mi WSW 8.1 mph - N/A   Partly Cloudy
10:53 AM 42.1 °F 35.7 °F 30.0 °F 62% 30.09 in 10.0 mi South 11.5 mph - N/A   Mostly Cloudy
11:53 AM 42.1 °F 37.1 °F 28.9 °F 60% 30.06 in 10.0 mi SW 8.1 mph - N/A   Overcast
12:53 PM 43.0 °F 38.8 °F 30.9 °F 62% 30.01 in 10.0 mi SSW 6.9 mph - N/A   Overcast
1:53 PM 42.1 °F 37.7 °F 30.9 °F 65% 29.99 in 10.0 mi South 6.9 mph - 0.00 in Rain Light Rain
2:53 PM 43.0 °F 38.2 °F 30.9 °F 62% 29.97 in 10.0 mi WSW 8.1 mph - 0.00 in   Overcast
3:53 PM 44.1 °F 36.8 °F 28.9 °F 55% 29.96 in 10.0 mi SW 16.1 mph 20.7 mph N/A   Overcast
4:53 PM 42.1 °F 36.1 °F 32.0 °F 67% 29.95 in 10.0 mi WSW 10.4 mph - 0.00 in Rain Light Rain
5:53 PM 41.0 °F 34.7 °F 33.1 °F 73% 29.95 in 10.0 mi WSW 10.4 mph 20.7 mph 0.00 in Rain Light Rain
6:09 PM 41.0 °F 35.8 °F 33.1 °F 73% 29.94 in 10.0 mi SW 8.1 mph - 0.00 in Rain Light Rain
6:37 PM 41.0 °F 36.4 °F 34.0 °F 76% 29.94 in 10.0 mi SW 6.9 mph - 0.00 in Rain Light Rain
6:53 PM 41.0 °F 35.8 °F 34.0 °F 76% 29.95 in 10.0 mi SW 8.1 mph - 0.00 in Rain Light Rain
7:40 PM 39.9 °F 33.4 °F 35.1 °F 83% 29.93 in 10.0 mi SW 10.4 mph - 0.01 in Rain Light Rain
7:53 PM 39.9 °F 34.5 °F 35.1 °F 83% 29.94 in 10.0 mi SW 8.1 mph - 0.01 in Rain Light Rain
8:21 PM 39.9 °F 34.5 °F 35.1 °F 83% 29.93 in 10.0 mi SW 8.1 mph - 0.00 in Rain Light Rain
8:30 PM 39.9 °F 34.5 °F 35.1 °F 83% 29.93 in 10.0 mi WSW 8.1 mph - 0.00 in   Overcast
8:53 PM 39.9 °F 33.4 °F 36.0 °F 86% 29.95 in 8.0 mi WSW 10.4 mph - 0.00 in Rain Light Rain
9:32 PM 37.9 °F 27.6 °F 34.0 °F 86% 29.95 in 10.0 mi West 20.7 mph - 0.01 in Rain Light Rain
9:49 PM 37.4 °F 27.5 °F 33.8 °F 87% 29.96 in 10.0 mi West 18.4 mph - 0.01 in Rain Light Rain
9:53 PM 37.0 °F 28.5 °F 33.1 °F 86% 29.97 in 10.0 mi West 13.8 mph - 0.01 in Rain Light Rain
10:12 PM 36.0 °F 27.1 °F 32.0 °F 86% 29.97 in 10.0 mi WNW 13.8 mph - 0.00 in Rain Light Rain
10:23 PM 36.0 °F 26.0 °F 32.0 °F 86% 29.97 in 10.0 mi WNW 17.3 mph - 0.00 in Rain Light Rain
10:53 PM 35.1 °F 26.4 °F 32.0 °F 89% 29.99 in 8.0 mi West 12.7 mph - 0.01 in Rain Light Rain
11:01 PM 35.1 °F 27.9 °F 32.0 °F 89% 29.99 in 10.0 mi West 9.2 mph - 0.00 in Rain Light Rain
11:28 PM 34.0 °F 26.0 °F 32.0 °F 92% 30.00 in 7.0 mi West 10.4 mph - 0.01 in Snow Light Snow
11:53 PM 33.1 °F 23.0 °F 30.9 °F 92% 30.02 in 3.0 mi West 15.0 mph - 0.01 in Snow Light Snow